{"data":{"norad_id":53702,"epoch":"2026-05-24T23:36:29.630592Z","epoch_age_seconds":72889,"freshness":"FRESH","line1":"1 53702U 22107C   26144.98367628 -.00001688  00000+0 -87974-4 0  9998","line2":"2 53702  53.2129 246.5240 0001116  90.7843 269.3277 15.08842154206613","mean_motion":15.08842154,"eccentricity":0.0001116,"inclination_deg":53.2129,"raan_deg":246.524,"arg_perigee_deg":90.7843,"mean_anomaly_deg":269.3277,"bstar":-8.7974e-5,"rev_number":20661,"period_min":95.437418432571,"perigee_km":538.96477033901,"apogee_km":540.5088397723,"semimajor_km":6917.8738050557,"source":"CELESTRAK","updated_at":"2026-05-25T13:38:17.531889Z"}}